COSMOS 2491 DEB *, 45128

Orbit data source: Space-Track

COSMOS 2491 DEB *, 45128 is space debris in LEO originally from a launch on Wed, 25 Dec 2013 UTC launched from the Plesetsk Missile And Space Complex (PKMTR). Debris objects in space refer to the collection of defunct objects orbiting the Earth. Examples of debris include non-operational satellites, rocket bodies, and fragments generated from explosions, collisions, or faulty payload assembly.

Loading next visibility...
Identifier
45128, 2013-076AA
Orbit
LEO
Country
Flag of CISCIS
Related business
Manufacturer
TsNIIKhM
Mission
Spacecraft
Bus & Motor
Unknown
Mass
Unknown
Launch date (UTC)
2013-12-25 (13 years ago)
Launch vehicle
Unknown
Launch site
Plesetsk Missile And Space Complex (PKMTR)
Object type
Payload
Rocket body
Debris
Shape & HBR
Unknown shape, 0.1 m
Radar Cross Section
Small (<0.1 m²)

Expand to show TLE details & history
Last TLE update: 22 hours ago

TLE from 22 hours ago
0 COSMOS 2491 DEB *
1 45128U 13076AA  26255.31725462  .00003657  00000-0  10751-2 0  9994
2 45128  81.2061 269.0626 0021559 343.9044  16.1457 14.43473045 74617
Epoch: 2026-09-12T07:36Z
TLE epoch observation values (Epoch: 2026-09-12T07:36:50.799Z)
Latitude
-0.00005°
Longitude
163.52294°
Altitude
735.235 km
Speed
7.495 km/s
True Right ascension
17h 56m 15s
True Declination
0° 00' 00"
Sunlit
Object was in daylight at epoch
Visualization orbit readout
Latitude
Unknown
Longitude
Unknown
Altitude
Unknown
Speed
Unknown
Apparent Right ascension
Unknown
Apparent Declination
Unknown
Sunlit
N/A
Visualization observer readout
Local Sidereal Time
22:29:04
Azimuth
Unknown
Elevation
Unknown
Doppler factor
Unknown
Orbital elements
Apogee altitude
759.533 km
Perigee altitude
728.823 km
Semi-major axis
7,122.315 km
Eccentricity
0.00216
Inclination
81.2061°
RAAN
269.0626°
Arg. of periapsis
343.9044°
True anomaly
16.21458°
Mean anomaly
16.1457°
Eccentric anomaly
16.18012°
Mean motion
3.61087 °/min
Orbital period
99.7 mins
BSTAR
0.0010751
Loading maneuver chart data...
Computing Atmospheric mass density...
Loading historical data...
Loading historical data...
Loading historical data...
Loading historical data...
Loading historical data...
Loading historical data...
Loading historical data...

Documentation

Showing up to 5 results
|